QPF
0.01 0.01 0.01 0.01 0.00 0.00 0.00 0.00 0.01 0.02 0.03 0.02 0.02 0.03 0.01 0.01 0.00 0.00 0.00 0.00 0.01 0.01 0.02 0.04 0.04 0.05 0.04 0.05 0.06 0.07 0.07 0.07 0.06 0.07 0.07 0.07 0.06 0.05 0.04 0.05 0.05 0.05 0.06 0.06
0.01 0.03 0.02 0.04 0.03 0.01 0.01 0.00 0.00 0.01 0.02 0.01 0.01 0.01 0.01 0.01 0.00 0.00 0.00 0.00 0.01 0.01 0.02 0.03 0.04 0.05 0.04 0.04 0.04 0.05 0.05 0.04 0.04 0.05 0.06 0.07 0.08 0.08 0.05 0.03 0.03 0.04 0.05 0.05
0.01 0.01 0.02 0.02 0.02 0.01 0.01 0.00 0.01 0.01 0.01 0.01 0.01 0.01 0.01 0.00 0.01 0.01 0.01 0.01 0.01 0.02 0.03 0.04 0.03 0.02 0.03 0.02 0.02 0.03 0.03 0.03 0.04 0.05 0.07 0.07 0.07 0.08 0.07 0.05 0.03 0.04 0.05 0.04
0.02 0.02 0.02 0.01 0.00 0.00 0.00 0.00 0.01 0.01 0.01 0.01 0.01 0.01 0.00 0.00 0.00 0.01 0.01 0.01 0.02 0.02 0.03 0.03 0.04 0.03 0.03 0.02 0.02 0.02 0.02 0.01 0.02 0.04 0.05 0.06 0.07 0.08 0.08 0.08 0.06 0.05 0.05 0.04
0.03 0.03 0.02 0.01 0.00 0.00 0.00 0.01 0.01 0.01 0.02 0.01 0.01 0.01 0.01 0.01 0.02 0.01 0.01 0.02 0.03 0.03 0.03 0.04 0.04 0.04 0.03 0.02 0.02 0.03 0.03 0.02 0.02 0.04 0.05 0.06 0.06 0.07 0.07 0.08 0.08 0.07 0.06 0.06
0.03 0.04 0.04 0.03 0.01 0.01 0.01 0.02 0.02 0.01 0.01 0.01 0.02 0.03 0.03 0.04 0.05 0.01 0.01 0.02 0.02 0.02 0.03 0.03 0.04 0.04 0.03 0.02 0.02 0.04 0.05 0.04 0.04 0.04 0.04 0.05 0.05 0.05 0.06 0.07 0.06 0.06 0.04 0.04
0.02 0.03 0.03 0.03 0.02 0.01 0.03 0.05 0.02 0.01 0.00 0.01 0.01 0.01 0.01 0.01 0.01 0.01 0.01 0.02 0.02 0.01 0.01 0.01 0.02 0.02 0.01 0.01 0.01 0.03 0.05 0.05 0.04 0.04 0.04 0.04 0.05 0.05 0.06 0.05 0.06 0.06 0.04 0.03
0.02 0.03 0.03 0.02 0.01 0.03 0.04 0.02 0.01 0.01 0.01 0.01 0.00 0.00 0.00 0.00 0.01 0.01 0.02 0.02 0.02 0.01 0.01 0.01 0.01 0.01 0.02 0.02 0.03 0.03 0.03 0.02 0.03 0.03 0.03 0.03 0.04 0.06 0.06 0.06 0.06 0.05 0.04 0.03
0.02 0.04 0.03 0.01 0.01 0.03 0.02 0.01 0.01 0.01 0.01 0.00 0.00 0.00 0.00 0.00 0.00 0.00 0.01 0.01 0.02 0.01 0.01 0.01 0.02 0.02 0.02 0.02 0.02 0.02 0.02 0.03 0.04 0.04 0.04 0.04 0.06 0.08 0.07 0.06 0.05 0.05 0.05 0.04
0.02 0.02 0.01 0.01 0.01 0.01 0.01 0.01 0.01 0.00 0.00 0.00 0.00 0.00 0.00 0.00 0.01 0.00 0.00 0.00 0.01 0.01 0.01 0.01 0.01 0.01 0.02 0.02 0.01 0.01 0.02 0.03 0.03 0.05 0.06 0.06 0.07 0.09 0.07 0.07 0.07 0.05 0.04 0.04
0.02 0.02 0.01 0.01 0.00 0.00 0.00 0.00 0.00 0.00 0.00 0.00 0.00 0.00 0.00 0.01 0.01 0.01 0.01 0.01 0.01 0.01 0.02 0.02 0.01 0.01 0.01 0.01 0.01 0.02 0.02 0.03 0.03 0.04 0.04 0.04 0.05 0.05 0.04 0.04 0.04 0.04 0.03 0.02
0.02 0.01 0.01 0.01 0.00 0.00 0.00 0.00 0.00 0.00 0.01 0.01 0.00 0.00 0.00 0.00 0.01 0.02 0.01 0.01 0.01 0.01 0.02 0.02 0.02 0.02 0.01 0.01 0.01 0.02 0.02 0.03 0.03 0.03 0.04 0.04 0.04 0.04 0.03 0.03 0.02 0.02 0.01 0.02
0.00 0.00 0.00 0.00 0.00 0.00 0.00 0.00 0.00 0.00 0.01 0.01 0.00 0.00 0.00 0.00 0.01 0.01 0.01 0.01 0.01 0.02 0.02 0.02 0.02 0.02 0.02 0.01 0.01 0.02 0.03 0.04 0.03 0.03 0.04 0.04 0.05 0.06 0.05 0.04 0.04 0.03 0.02 0.02
0.00 0.00 0.00 0.00 0.00 0.01 0.00 0.00 0.00 0.00 0.00 0.00 0.00 0.00 0.00 0.01 0.01 0.01 0.01 0.01 0.02 0.02 0.02 0.02 0.02 0.02 0.01 0.01 0.02 0.02 0.03 0.04 0.03 0.04 0.04 0.04 0.05 0.05 0.05 0.04 0.03 0.02 0.02 0.02
0.00 0.00 0.00 0.00 0.00 0.00 0.00 0.00 0.01 0.01 0.01 0.01 0.01 0.00 0.00 0.01 0.01 0.01 0.01 0.02 0.03 0.03 0.03 0.02 0.02 0.02 0.02 0.01 0.02 0.02 0.04 0.04 0.03 0.03 0.02 0.02 0.03 0.04 0.04 0.03 0.02 0.02 0.02 0.02
0.00 0.00 0.00 0.00 0.00 0.00 0.00 0.01 0.02 0.02 0.01 0.02 0.01 0.00 0.00 0.01 0.01 0.02 0.02 0.02 0.04 0.04 0.04 0.03 0.02 0.01 0.02 0.02 0.02 0.03 0.04 0.03 0.02 0.02 0.02 0.03 0.03 0.04 0.04 0.04 0.03 0.03 0.02 0.02
0.01 0.01 0.02 0.02 0.01 0.01 0.01 0.01 0.02 0.01 0.01 0.02 0.01 0.00 0.00 0.01 0.02 0.02 0.01 0.02 0.04 0.04 0.04 0.03 0.02 0.02 0.02 0.02 0.03 0.03 0.02 0.02 0.02 0.03 0.03 0.04 0.04 0.04 0.05 0.06 0.06 0.04 0.03 0.02
0.01 0.01 0.02 0.02 0.02 0.01 0.01 0.02 0.01 0.02 0.01 0.02 0.01 0.00 0.01 0.01 0.02 0.01 0.01 0.02 0.04 0.04 0.03 0.03 0.02 0.01 0.01 0.02 0.02 0.02 0.02 0.02 0.02 0.03 0.03 0.03 0.04 0.04 0.04 0.04 0.06 0.05 0.04 0.04
0.01 0.01 0.01 0.00 0.01 0.01 0.02 0.02 0.02 0.02 0.02 0.02 0.02 0.01 0.01 0.01 0.01 0.01 0.02 0.03 0.03 0.03 0.03 0.02 0.02 0.01 0.02 0.03 0.03 0.03 0.03 0.03 0.04 0.04 0.04 0.04 0.04 0.04 0.03 0.03 0.03 0.04 0.04 0.04
0.01 0.01 0.01 0.01 0.01 0.01 0.02 0.02 0.02 0.02 0.02 0.01 0.02 0.02 0.02 0.01 0.01 0.01 0.03 0.02 0.02 0.02 0.02 0.02 0.01 0.02 0.03 0.03 0.04 0.05 0.04 0.04 0.03 0.03 0.04 0.04 0.03 0.03 0.03 0.03 0.03 0.03 0.03 0.04
0.02 0.01 0.01 0.01 0.01 0.01 0.02 0.02 0.02 0.02 0.01 0.02 0.03 0.02 0.02 0.01 0.01 0.01 0.02 0.03 0.02 0.01 0.01 0.02 0.02 0.03 0.04 0.04 0.05 0.06 0.06 0.04 0.04 0.04 0.04 0.04 0.04 0.03 0.04 0.05 0.05 0.03 0.03 0.03
0.02 0.02 0.02 0.02 0.02 0.02 0.02 0.02 0.01 0.01 0.02 0.02 0.02 0.02 0.02 0.03 0.02 0.03 0.03 0.03 0.03 0.03 0.02 0.02 0.03 0.04 0.05 0.06 0.05 0.05 0.05 0.05 0.04 0.04 0.06 0.06 0.05 0.04 0.04 0.06 0.07 0.04 0.04 0.04
0.02 0.02 0.02 0.03 0.03 0.03 0.02 0.02 0.02 0.02 0.02 0.02 0.02 0.02 0.03 0.03 0.03 0.04 0.05 0.04 0.03 0.03 0.02 0.02 0.03 0.04 0.06 0.06 0.06 0.05 0.04 0.04 0.05 0.04 0.05 0.07 0.05 0.03 0.03 0.05 0.05 0.05 0.04 0.04
0.01 0.02 0.02 0.02 0.03 0.03 0.04 0.04 0.04 0.04 0.03 0.02 0.01 0.02 0.03 0.03 0.03 0.04 0.04 0.05 0.04 0.03 0.02 0.01 0.01 0.03 0.04 0.05 0.06 0.05 0.05 0.04 0.03 0.03 0.04 0.04 0.03 0.02 0.02 0.03 0.03 0.03 0.04 0.05
0.01 0.02 0.02 0.02 0.02 0.03 0.04 0.04 0.04 0.04 0.03 0.02 0.01 0.01 0.02 0.02 0.03 0.04 0.04 0.04 0.04 0.03 0.02 0.01 0.01 0.01 0.02 0.04 0.05 0.05 0.05 0.06 0.05 0.04 0.04 0.05 0.05 0.03 0.02 0.02 0.02 0.03 0.03 0.04
0.01 0.01 0.02 0.02 0.03 0.03 0.04 0.04 0.04 0.04 0.04 0.03 0.02 0.02 0.02 0.02 0.02 0.03 0.03 0.04 0.04 0.04 0.03 0.02 0.02 0.01 0.01 0.02 0.04 0.04 0.05 0.05 0.05 0.04 0.03 0.02 0.02 0.02 0.02 0.02 0.02 0.02 0.03 0.02
0.01 0.01 0.01 0.02 0.02 0.03 0.04 0.04 0.04 0.05 0.04 0.03 0.02 0.02 0.03 0.02 0.03 0.03 0.03 0.05 0.06 0.05 0.02 0.01 0.02 0.01 0.01 0.02 0.03 0.03 0.04 0.04 0.04 0.04 0.03 0.03 0.03 0.03 0.03 0.02 0.02 0.02 0.02 0.01
MSLP
1010.60 1010.65 1010.57 1010.38 1010.11 1009.80 1009.49 1009.20 1008.98 1008.82 1008.74 1008.74 1008.82 1008.96 1009.15 1009.36 1009.58 1009.79 1009.99 1010.16 1010.30 1010.41 1010.51 1010.60 1010.69 1010.79 1010.93 1011.10 1011.31 1011.57 1011.86 1012.18 1012.51 1012.84 1013.17 1013.47 1013.74 1013.99 1014.21 1014.40 1014.58 1014.74 1014.90 1015.04
1010.83 1010.86 1010.74 1010.49 1010.14 1009.74 1009.33 1008.97 1008.67 1008.47 1008.37 1008.38 1008.48 1008.66 1008.88 1009.13 1009.39 1009.63 1009.84 1010.02 1010.16 1010.27 1010.37 1010.45 1010.54 1010.64 1010.76 1010.92 1011.10 1011.33 1011.58 1011.87 1012.17 1012.48 1012.80 1013.11 1013.42 1013.70 1013.97 1014.21 1014.43 1014.63 1014.80 1014.96
1010.83 1010.87 1010.74 1010.46 1010.08 1009.62 1009.16 1008.74 1008.39 1008.16 1008.04 1008.05 1008.16 1008.36 1008.61 1008.88 1009.16 1009.41 1009.63 1009.82 1009.97 1010.09 1010.19 1010.28 1010.38 1010.48 1010.60 1010.74 1010.91 1011.10 1011.32 1011.56 1011.82 1012.11 1012.42 1012.74 1013.06 1013.39 1013.70 1013.99 1014.26 1014.51 1014.71 1014.89
1010.55 1010.60 1010.49 1010.21 1009.82 1009.35 1008.87 1008.43 1008.07 1007.82 1007.70 1007.70 1007.83 1008.04 1008.31 1008.60 1008.90 1009.17 1009.41 1009.61 1009.77 1009.91 1010.03 1010.14 1010.24 1010.36 1010.48 1010.61 1010.75 1010.91 1011.09 1011.28 1011.51 1011.76 1012.05 1012.36 1012.70 1013.05 1013.40 1013.74 1014.06 1014.35 1014.60 1014.80
1009.96 1010.03 1009.93 1009.68 1009.31 1008.86 1008.39 1007.96 1007.61 1007.37 1007.26 1007.29 1007.43 1007.67 1007.97 1008.29 1008.61 1008.90 1009.17 1009.39 1009.58 1009.74 1009.89 1010.02 1010.15 1010.27 1010.40 1010.52 1010.64 1010.76 1010.89 1011.04 1011.22 1011.43 1011.68 1011.97 1012.31 1012.67 1013.04 1013.42 1013.77 1014.10 1014.38 1014.62
1009.10 1009.15 1009.07 1008.85 1008.51 1008.10 1007.68 1007.28 1006.97 1006.77 1006.70 1006.76 1006.94 1007.22 1007.56 1007.92 1008.27 1008.61 1008.90 1009.16 1009.38 1009.57 1009.74 1009.90 1010.05 1010.19 1010.31 1010.43 1010.53 1010.62 1010.71 1010.81 1010.93 1011.09 1011.30 1011.55 1011.86 1012.21 1012.58 1012.96 1013.34 1013.69 1014.01 1014.29
1008.02 1008.04 1007.96 1007.76 1007.46 1007.10 1006.73 1006.40 1006.15 1006.01 1006.00 1006.12 1006.35 1006.68 1007.06 1007.47 1007.87 1008.24 1008.57 1008.86 1009.11 1009.33 1009.53 1009.71 1009.88 1010.03 1010.16 1010.27 1010.35 1010.42 1010.47 1010.53 1010.60 1010.71 1010.86 1011.06 1011.32 1011.64 1011.99 1012.36 1012.73 1013.10 1013.44 1013.75
1006.83 1006.80 1006.70 1006.51 1006.25 1005.95 1005.64 1005.39 1005.21 1005.15 1005.21 1005.39 1005.69 1006.07 1006.50 1006.95 1007.38 1007.78 1008.14 1008.45 1008.72 1008.96 1009.18 1009.37 1009.55 1009.71 1009.85 1009.97 1010.05 1010.10 1010.13 1010.16 1010.19 1010.24 1010.34 1010.48 1010.69 1010.95 1011.26 1011.60 1011.96 1012.32 1012.68 1013.02
1005.65 1005.56 1005.42 1005.23 1005.00 1004.76 1004.53 1004.35 1004.26 1004.27 1004.41 1004.66 1005.01 1005.43 1005.89 1006.36 1006.81 1007.22 1007.59 1007.90 1008.17 1008.41 1008.62 1008.82 1009.01 1009.19 1009.34 1009.46 1009.55 1009.61 1009.64 1009.64 1009.65 1009.66 1009.71 1009.81 1009.96 1010.16 1010.42 1010.72 1011.06 1011.42 1011.78 1012.16
1004.60 1004.44 1004.26 1004.08 1003.88 1003.68 1003.52 1003.42 1003.41 1003.49 1003.69 1003.99 1004.37 1004.81 1005.28 1005.75 1006.18 1006.57 1006.91 1007.19 1007.44 1007.66 1007.86 1008.05 1008.24 1008.42 1008.59 1008.73 1008.84 1008.92 1008.96 1008.97 1008.96 1008.96 1008.98 1009.04 1009.15 1009.31 1009.53 1009.80 1010.12 1010.47 1010.85 1011.25
1003.74 1003.52 1003.33 1003.14 1002.97 1002.83 1002.73 1002.70 1002.74 1002.89 1003.12 1003.44 1003.83 1004.26 1004.70 1005.12 1005.51 1005.84 1006.12 1006.36 1006.55 1006.73 1006.90 1007.07 1007.25 1007.43 1007.61 1007.78 1007.91 1008.02 1008.09 1008.12 1008.14 1008.14 1008.16 1008.20 1008.29 1008.43 1008.63 1008.89 1009.20 1009.56 1009.96 1010.38
1003.11 1002.86 1002.66 1002.49 1002.35 1002.26 1002.21 1002.23 1002.32 1002.49 1002.74 1003.05 1003.42 1003.80 1004.17 1004.52 1004.83 1005.08 1005.28 1005.44 1005.57 1005.68 1005.81 1005.94 1006.10 1006.28 1006.46 1006.65 1006.81 1006.95 1007.05 1007.12 1007.16 1007.19 1007.23 1007.29 1007.39 1007.54 1007.75 1008.03 1008.36 1008.74 1009.17 1009.63
1002.67 1002.43 1002.24 1002.10 1002.00 1001.94 1001.93 1001.98 1002.10 1002.27 1002.51 1002.78 1003.09 1003.40 1003.69 1003.95 1004.15 1004.31 1004.42 1004.49 1004.54 1004.59 1004.66 1004.76 1004.88 1005.04 1005.22 1005.40 1005.58 1005.74 1005.87 1005.97 1006.05 1006.12 1006.19 1006.29 1006.43 1006.62 1006.88 1007.20 1007.58 1008.01 1008.49 1009.00
1002.36 1002.15 1002.00 1001.89 1001.82 1001.80 1001.81 1001.88 1001.99 1002.14 1002.34 1002.56 1002.79 1003.01 1003.21 1003.37 1003.48 1003.54 1003.57 1003.56 1003.54 1003.53 1003.54 1003.58 1003.67 1003.79 1003.94 1004.11 1004.28 1004.44 1004.58 1004.71 1004.82 1004.93 1005.05 1005.20 1005.39 1005.65 1005.97 1006.36 1006.81 1007.32 1007.86 1008.42
1002.09 1001.93 1001.82 1001.75 1001.71 1001.71 1001.73 1001.79 1001.88 1001.99 1002.13 1002.28 1002.44 1002.57 1002.69 1002.76 1002.79 1002.78 1002.73 1002.67 1002.59 1002.53 1002.49 1002.48 1002.52 1002.59 1002.70 1002.83 1002.96 1003.10 1003.23 1003.36 1003.48 1003.62 1003.78 1003.99 1004.25 1004.58 1004.98 1005.45 1005.99 1006.57 1007.19 1007.82
1001.79 1001.68 1001.61 1001.57 1001.55 1001.55 1001.57 1001.60 1001.65 1001.71 1001.79 1001.87 1001.95 1002.01 1002.06 1002.07 1002.05 1002.00 1001.92 1001.82 1001.71 1001.62 1001.54 1001.49 1001.47 1001.49 1001.53 1001.60 1001.67 1001.76 1001.86 1001.96 1002.08 1002.23 1002.42 1002.67 1002.99 1003.40 1003.88 1004.43 1005.05 1005.72 1006.41 1007.11
1001.41 1001.34 1001.30 1001.28 1001.26 1001.24 1001.23 1001.21 1001.21 1001.21 1001.23 1001.25 1001.27 1001.28 1001.29 1001.27 1001.24 1001.18 1001.10 1001.00 1000.89 1000.79 1000.69 1000.60 1000.53 1000.49 1000.46 1000.45 1000.45 1000.47 1000.51 1000.57 1000.67 1000.81 1001.02 1001.30 1001.67 1002.13 1002.68 1003.30 1003.99 1004.73 1005.49 1006.25
1000.94 1000.90 1000.86 1000.82 1000.78 1000.73 1000.67 1000.60 1000.54 1000.48 1000.43 1000.40 1000.38 1000.37 1000.36 1000.35 1000.34 1000.31 1000.26 1000.19 1000.11 1000.01 999.91 999.80 999.69 999.59 999.49 999.40 999.32 999.27 999.24 999.25 999.32 999.45 999.66 999.96 1000.36 1000.86 1001.45 1002.12 1002.86 1003.64 1004.45 1005.26
1000.41 1000.35 1000.29 1000.22 1000.13 1000.02 999.90 999.77 999.64 999.52 999.42 999.35 999.31 999.30 999.31 999.33 999.35 999.37 999.38 999.37 999.33 999.27 999.18 999.06 998.93 998.78 998.62 998.46 998.31 998.19 998.11 998.08 998.11 998.23 998.43 998.74 999.16 999.68 1000.29 1000.99 1001.75 1002.55 1003.38 1004.21
999.86 999.76 999.65 999.52 999.36 999.18 998.99 998.79 998.59 998.42 998.28 998.19 998.14 998.13 998.17 998.23 998.32 998.40 998.48 998.53 998.55 998.52 998.45 998.34 998.20 998.02 997.82 997.61 997.42 997.25 997.13 997.07 997.09 997.20 997.41 997.73 998.15 998.68 999.30 1000.00 1000.76 1001.56 1002.40 1003.24
999.32 999.15 998.97 998.76 998.53 998.27 998.01 997.74 997.49 997.27 997.10 996.99 996.94 996.95 997.02 997.13 997.27 997.42 997.56 997.67 997.74 997.76 997.72 997.62 997.47 997.28 997.07 996.84 996.62 996.44 996.31 996.24 996.27 996.39 996.61 996.94 997.38 997.92 998.54 999.23 999.98 1000.77 1001.60 1002.44
998.82 998.56 998.29 998.00 997.69 997.36 997.03 996.71 996.41 996.16 995.96 995.84 995.80 995.83 995.93 996.08 996.27 996.47 996.66 996.82 996.93 996.99 996.97 996.89 996.75 996.55 996.33 996.10 995.89 995.71 995.59 995.55 995.59 995.74 996.00 996.36 996.82 997.37 998.00 998.69 999.44 1000.22 1001.04 1001.88
998.34 997.99 997.64 997.27 996.89 996.50 996.11 995.74 995.42 995.14 994.94 994.82 994.78 994.83 994.96 995.14 995.36 995.59 995.82 996.01 996.15 996.22 996.21 996.14 996.00 995.82 995.60 995.38 995.18 995.02 994.93 994.92 995.01 995.20 995.51 995.91 996.41 996.99 997.64 998.34 999.10 999.89 1000.72 1001.58
997.86 997.43 997.00 996.57 996.13 995.70 995.28 994.89 994.55 994.27 994.07 993.96 993.94 994.01 994.15 994.35 994.59 994.84 995.07 995.27 995.42 995.49 995.48 995.41 995.27 995.08 994.87 994.65 994.47 994.33 994.27 994.31 994.44 994.69 995.04 995.50 996.05 996.67 997.36 998.11 998.89 999.72 1000.58 1001.47
997.36 996.86 996.37 995.89 995.42 994.97 994.55 994.16 993.83 993.57 993.39 993.29 993.29 993.37 993.53 993.74 993.98 994.23 994.47 994.66 994.79 994.84 994.83 994.73 994.58 994.38 994.16 993.95 993.77 993.65 993.62 993.68 993.86 994.15 994.55 995.06 995.67 996.35 997.10 997.90 998.75 999.63 1000.55 1001.50
996.83 996.28 995.75 995.25 994.77 994.33 993.91 993.55 993.25 993.02 992.87 992.81 992.84 992.94 993.11 993.33 993.57 993.81 994.03 994.20 994.31 994.34 994.29 994.17 993.99 993.78 993.54 993.31 993.13 993.01 992.99 993.07 993.28 993.60 994.05 994.61 995.27 996.02 996.84 997.71 998.63 999.59 1000.58 1001.60
996.28 995.71 995.17 994.66 994.20 993.77 993.40 993.08 992.82 992.64 992.53 992.51 992.57 992.70 992.88 993.11 993.34 993.58 993.78 993.93 994.01 994.01 993.94 993.79 993.58 993.34 993.08 992.84 992.64 992.52 992.49 992.58 992.80 993.15 993.63 994.23 994.94 995.75 996.63 997.58 998.57 999.61 1000.68 1001.78
Thickness
5744 5752 5754 5752 5752 5754 5750 5747 5738 5735 5730 5730 5732 5730 5727 5724 5721 5717 5714 5711 5707 5702 5699 5696 5694 5691 5690 5688 5686 5685 5682 5680 5679 5679 5678 5678 5677 5676 5676 5675 5675 5674 5673 5673
5733 5745 5748 5745 5748 5748 5745 5744 5738 5731 5722 5730 5730 5726 5721 5716 5711 5707 5704 5702 5699 5695 5691 5688 5685 5683 5681 5680 5679 5677 5674 5672 5672 5672 5671 5669 5668 5668 5667 5666 5667 5666 5665 5665
5716 5734 5734 5723 5738 5741 5737 5737 5732 5719 5717 5721 5715 5712 5709 5706 5702 5697 5694 5692 5688 5685 5682 5680 5678 5676 5673 5673 5672 5670 5667 5666 5665 5664 5663 5662 5662 5660 5659 5658 5658 5657 5657 5658
5711 5713 5697 5722 5745 5741 5730 5725 5725 5720 5717 5713 5708 5705 5703 5700 5693 5689 5685 5682 5679 5677 5675 5674 5672 5670 5667 5666 5664 5662 5660 5658 5658 5657 5656 5655 5654 5653 5652 5651 5650 5651 5651 5651
5701 5697 5704 5719 5728 5728 5719 5707 5715 5710 5706 5705 5704 5698 5691 5691 5686 5682 5679 5676 5672 5671 5669 5667 5665 5662 5659 5657 5656 5654 5652 5650 5650 5649 5648 5647 5646 5646 5645 5644 5644 5644 5644 5644
5695 5686 5684 5699 5720 5727 5716 5691 5704 5703 5696 5695 5692 5679 5676 5681 5679 5675 5673 5670 5667 5664 5663 5659 5657 5655 5652 5649 5647 5645 5645 5644 5643 5642 5641 5639 5639 5639 5639 5638 5637 5638 5638 5638
5687 5683 5686 5702 5714 5713 5685 5679 5695 5694 5689 5685 5679 5675 5674 5675 5671 5668 5665 5662 5660 5657 5654 5652 5650 5647 5643 5641 5639 5639 5638 5637 5636 5634 5633 5633 5632 5631 5631 5631 5631 5630 5631 5632
5685 5675 5673 5698 5699 5687 5680 5688 5687 5684 5682 5677 5674 5672 5669 5666 5663 5660 5657 5655 5653 5649 5646 5644 5642 5638 5635 5633 5633 5632 5631 5630 5628 5627 5627 5627 5625 5624 5623 5623 5624 5624 5624 5624
5681 5675 5684 5691 5688 5688 5688 5683 5680 5677 5675 5671 5667 5664 5662 5658 5656 5653 5650 5647 5645 5642 5639 5637 5634 5632 5628 5626 5626 5624 5623 5622 5621 5621 5620 5619 5618 5617 5616 5616 5616 5617 5617 5617
5677 5678 5682 5685 5685 5683 5682 5677 5676 5673 5669 5666 5661 5658 5655 5651 5648 5645 5643 5640 5638 5635 5632 5629 5628 5626 5623 5621 5619 5617 5616 5615 5614 5614 5613 5613 5611 5611 5610 5609 5609 5609 5609 5609
5669 5672 5675 5676 5675 5675 5674 5672 5669 5666 5664 5659 5655 5651 5648 5644 5641 5638 5636 5634 5631 5628 5625 5623 5621 5619 5618 5616 5613 5611 5610 5609 5609 5608 5608 5606 5605 5604 5604 5603 5602 5601 5601 5601
5661 5667 5665 5665 5670 5670 5666 5663 5661 5658 5654 5653 5649 5644 5641 5637 5635 5632 5630 5628 5625 5622 5619 5617 5615 5613 5612 5610 5608 5605 5604 5603 5602 5602 5602 5601 5599 5598 5596 5596 5595 5593 5593 5592
5666 5668 5666 5664 5664 5663 5659 5657 5655 5652 5647 5644 5642 5639 5635 5631 5629 5626 5624 5622 5619 5616 5614 5612 5609 5607 5606 5604 5602 5600 5597 5596 5596 5596 5596 5595 5594 5593 5591 5589 5588 5587 5586 5585
5662 5659 5654 5654 5653 5654 5652 5650 5648 5645 5641 5638 5635 5632 5628 5625 5623 5620 5618 5616 5614 5611 5609 5607 5604 5602 5601 5599 5597 5595 5593 5592 5590 5590 5590 5590 5589 5588 5588 5586 5584 5583 5581 5578
5652 5650 5648 5648 5647 5645 5644 5641 5638 5634 5632 5630 5628 5624 5621 5619 5617 5615 5614 5612 5609 5606 5604 5601 5598 5596 5595 5593 5591 5589 5587 5587 5586 5586 5586 5586 5585 5584 5583 5582 5581 5579 5578 5576
5643 5643 5642 5640 5637 5636 5635 5632 5628 5627 5625 5623 5621 5619 5617 5615 5612 5610 5608 5606 5602 5599 5597 5595 5592 5591 5589 5587 5585 5583 5582 5580 5579 5580 5580 5580 5580 5579 5578 5577 5576 5575 5574 5573
5632 5630 5630 5629 5629 5628 5627 5625 5623 5621 5619 5617 5616 5614 5611 5609 5606 5603 5601 5600 5598 5595 5592 5589 5587 5585 5584 5581 5579 5578 5578 5576 5573 5574 5575 5575 5575 5574 5573 5572 5572 5571 5571 5569
5630 5628 5627 5624 5623 5622 5621 5620 5619 5616 5614 5613 5611 5608 5605 5602 5599 5596 5595 5593 5591 5589 5587 5585 5581 5579 5577 5576 5573 5573 5572 5571 5570 5570 5570 5570 5569 5569 5569 5568 5567 5566 5566 5564
5626 5624 5622 5620 5618 5617 5615 5614 5613 5612 5610 5607 5604 5601 5599 5597 5595 5592 5589 5587 5584 5582 5581 5579 5575 5574 5572 5570 5567 5567 5567 5566 5565 5565 5565 5563 5563 5563 5563 5563 5562 5562 5561 5559
5619 5618 5615 5613 5613 5611 5608 5608 5607 5605 5603 5601 5597 5594 5592 5590 5589 5586 5583 5581 5579 5578 5576 5573 5571 5570 5567 5565 5561 5562 5562 5561 5561 5560 5560 5560 5558 5558 5558 5558 5557 5557 5556 5555
5610 5609 5607 5605 5604 5604 5602 5601 5599 5597 5596 5594 5590 5587 5585 5584 5582 5580 5578 5576 5575 5573 5571 5568 5567 5565 5563 5560 5557 5559 5559 5557 5557 5556 5556 5555 5554 5553 5553 5553 5553 5552 5551 5549
5601 5600 5598 5597 5596 5594 5594 5593 5592 5590 5588 5586 5585 5582 5580 5577 5576 5575 5573 5571 5570 5566 5565 5564 5562 5558 5556 5554 5555 5556 5556 5554 5553 5553 5552 5550 5548 5548 5548 5548 5548 5547 5546 5545
5593 5592 5590 5588 5587 5587 5587 5585 5584 5583 5581 5579 5578 5576 5574 5572 5572 5569 5567 5566 5566 5561 5560 5559 5555 5552 5549 5551 5551 5552 5552 5551 5551 5550 5549 5547 5546 5546 5545 5545 5544 5543 5541 5540
5585 5584 5583 5583 5582 5581 5579 5578 5578 5578 5577 5576 5575 5573 5570 5568 5567 5567 5565 5560 5558 5556 5557 5554 5550 5548 5545 5547 5548 5549 5549 5548 5548 5547 5546 5545 5544 5543 5543 5542 5541 5539 5538 5537
5580 5579 5578 5576 5576 5576 5575 5575 5574 5573 5573 5572 5571 5570 5568 5565 5563 5561 5560 5558 5554 5552 5553 5551 5548 5545 5545 5546 5547 5546 5546 5544 5544 5544 5543 5542 5540 5539 5538 5538 5537 5536 5535 5534
5573 5573 5573 5572 5572 5572 5572 5571 5570 5569 5568 5568 5567 5566 5565 5563 5560 5558 5555 5554 5552 5550 5550 5550 5548 5545 5546 5546 5545 5544 5543 5541 5541 5540 5539 5538 5537 5535 5534 5533 5533 5532 5531 5529
5568 5568 5568 5567 5569 5570 5570 5568 5567 5565 5564 5564 5563 5562 5560 5558 5556 5554 5552 5551 5549 5549 5549 5549 5549 5547 5546 5545 5543 5541 5540 5539 5538 5537 5536 5535 5533 5532 5531 5530 5529 5528 5526 5525